Location: Unspecified
(35.7250°N, 0.0000°E)
Time: 05:04:11
(UTC+00:00)

Vanguard 2 - Pass Details

Date: 26 June 2019
Orbit: 553 x 2938 km, 32.9° (Epoch: 23 July)

Event Time Altitude Azimuth Distance (km) Brightness Sun altitude
Rises 11:09:33 0° 275° (W) 3,593 10.8 73.1°
Reaches altitude 10° 11:11:46 10° 270° (W) 2,871 10.5 73.4°
Maximum altitude 11:18:40 51° 196° (SSW) 1,785 10.6 74.4°
Drops below altitude 10° 11:30:07 10° 126° (SE) 4,664 11.9 75.7°
Sets 11:34:46 0° 122° (ESE) 6,023 12.3 76.2°
